Probability
0 0 0 0 0 0 0 0 0 0 0 0 0 0 0 0 0 0 0 0 0 0 0 1 1 1 3 3 2 1 0 0 0 0 0 0 0 0 0 0 0 0 0
0 0 0 0 0 0 0 0 0 0 0 0 0 0 0 0 0 0 0 0 0 0 0 1 2 3 3 3 2 1 0 0 0 0 0 0 0 0 0 0 0 0 0
0 0 0 0 0 0 0 0 0 0 0 0 0 0 0 0 0 0 0 0 0 0 0 1 3 4 4 4 3 1 0 0 0 0 0 0 0 0 0 0 0 0 0
0 0 0 0 0 0 0 0 0 0 0 0 0 0 0 0 0 0 0 0 0 0 0 0 1 3 3 4 4 1 0 0 0 0 0 0 0 0 0 0 0 0 0
0 0 0 0 0 0 0 0 0 0 0 0 0 0 0 0 0 0 0 0 0 0 0 0 0 1 1 3 2 1 0 0 0 0 0 0 0 0 0 0 0 0 0
0 0 0 0 0 0 0 0 0 0 0 0 0 0 0 0 0 0 0 0 0 0 0 0 0 0 0 1 1 1 0 0 0 0 0 0 0 0 0 0 0 0 0
0 0 0 0 0 0 0 0 0 0 0 0 0 0 0 0 0 0 0 0 0 0 0 0 0 0 0 0 0 1 0 0 0 0 0 0 0 0 0 0 0 0 0
0 0 0 0 0 0 0 0 0 0 0 0 0 0 0 0 0 0 0 0 0 0 0 0 0 0 0 0 0 0 0 0 0 0 0 0 0 0 0 0 0 0 0
0 0 0 0 0 0 0 0 0 0 0 0 0 0 0 0 0 0 0 0 0 0 0 0 0 0 0 0 0 0 0 0 0 0 0 0 0 0 0 0 0 0 0
0 0 0 0 0 0 0 0 0 0 0 0 0 0 0 0 0 0 0 0 0 0 0 0 0 0 0 0 0 0 0 0 0 0 0 0 0 0 0 0 0 0 0
0 0 0 0 0 0 0 0 0 0 0 0 0 0 0 0 0 0 0 0 0 0 0 0 0 0 0 0 0 0 0 0 0 0 0 0 0 0 0 0 0 0 0
0 0 0 0 0 0 0 0 0 0 0 0 0 0 0 0 0 0 0 0 0 0 0 0 0 0 0 0 0 0 0 0 0 0 0 0 0 0 0 0 0 0 0
0 0 0 0 0 0 0 0 0 0 0 0 0 0 0 0 0 0 0 0 0 0 0 0 0 0 0 0 0 0 0 0 0 0 0 0 0 0 0 0 0 0 0
0 0 0 0 0 0 0 0 0 0 0 0 0 0 0 0 0 0 0 0 0 0 0 0 0 0 0 0 0 0 0 0 0 0 0 0 0 0 0 0 0 0 0
0 0 0 0 0 0 0 0 0 0 0 0 0 0 0 0 0 0 0 0 0 0 0 0 0 0 0 0 0 0 0 0 0 0 0 0 0 0 0 0 0 0 0
0 0 0 0 0 0 0 0 0 0 0 0 0 0 0 0 0 0 0 0 0 0 0 0 0 0 0 0 0 0 0 0 0 0 0 0 0 0 0 0 0 0 0
0 0 0 0 0 0 0 0 0 0 0 0 0 0 0 0 0 0 0 0 0 0 0 0 0 0 0 0 0 0 0 0 0 0 0 0 0 0 0 0 0 0 0
0 0 0 0 0 0 0 0 0 0 0 0 0 0 0 0 0 0 0 0 0 0 0 0 0 0 0 0 0 0 0 0 0 0 0 0 0 0 0 0 0 0 0
0 0 0 0 0 0 0 0 0 0 0 0 0 0 0 0 0 0 0 0 0 0 0 0 0 0 0 0 0 0 0 0 0 0 0 0 0 0 0 0 0 0 0
0 0 0 0 0 0 0 0 0 0 0 0 0 0 0 0 0 0 0 0 0 0 0 0 0 0 0 0 0 0 0 0 0 0 0 0 0 0 0 0 0 0 0
0 0 0 0 0 0 0 0 0 0 0 0 0 0 0 0 0 0 0 0 0 0 0 0 0 0 0 0 0 0 0 0 0 0 0 0 0 0 0 0 0 0 0
0 0 0 0 0 0 0 0 0 0 0 0 0 0 0 0 0 0 0 0 0 0 0 0 0 0 0 0 0 0 0 0 0 0 0 0 0 0 0 0 0 0 0
0 0 0 0 0 0 0 0 0 0 0 0 0 0 0 0 0 0 0 0 0 0 0 0 0 0 0 0 0 0 0 0 0 0 0 0 0 0 0 0 0 0 0
0 0 0 0 0 0 0 0 0 0 0 0 0 0 0 0 0 0 0 0 0 0 0 0 0 0 0 0 0 0 0 0 0 0 0 0 0 0 0 0 0 0 0
0 0 0 0 0 0 0 0 0 0 0 0 0 0 0 0 0 0 0 0 0 0 0 0 0 0 0 0 0 0 0 0 0 0 0 0 0 0 0 0 0 0 0
0 0 0 0 0 0 0 0 0 0 0 0 0 0 0 0 0 0 0 0 0 0 0 0 0 0 0 0 0 0 0 0 0 0 0 0 0 0 0 0 0 0 0
Wind_Speed
4 4 5 5 5 5 5 6 6 6 7 7 7 7 7 7 6 5 4 3 2 2 3 4 5 5 5 5 5 5 5 5 4 2 2 2 4 5 5 5 5 6 6
3 3 4 4 5 5 5 6 6 6 6 7 7 7 7 7 6 6 5 4 3 3 2 2 4 4 5 5 6 6 5 5 5 5 4 3 4 5 6 6 5 5 5
2 3 4 4 5 5 5 6 6 6 7 7 7 7 7 7 7 6 5 4 4 3 2 2 2 3 4 4 5 5 5 5 4 5 4 3 2 4 5 5 6 5 5
1 2 3 4 4 4 5 5 6 6 6 7 7 7 7 7 6 6 6 5 4 4 2 1 1 2 3 4 4 5 5 5 5 5 4 4 3 4 5 6 6 5 5
1 1 3 3 4 4 4 5 5 5 6 6 6 7 7 6 6 7 5 5 5 4 3 2 1 1 4 4 3 4 5 5 5 5 5 4 5 6 6 5 6 6 5
2 2 2 3 3 4 4 5 5 5 6 6 6 7 7 7 11 11 7 5 5 4 4 3 2 1 1 2 3 6 6 6 5 5 4 6 6 6 6 7 7 7 4
2 2 2 2 3 4 4 4 5 5 5 5 6 6 7 9 13 12 11 5 5 4 4 3 3 3 4 2 3 3 4 5 5 5 6 6 7 8 9 9 7 6 5
2 2 2 2 3 4 4 4 4 3 4 4 5 6 6 9 14 13 11 6 5 5 4 3 3 3 2 2 3 3 3 3 2 3 4 4 5 7 7 7 9 8 7
3 3 3 3 3 4 4 4 4 3 4 3 4 5 6 8 13 13 10 4 4 5 5 4 3 2 2 3 3 4 4 3 4 5 5 6 10 12 11 9 10 10 7
5 4 3 3 3 4 4 4 3 3 3 4 4 4 5 6 11 12 10 3 4 4 4 4 5 4 3 3 3 3 4 2 3 4 5 6 8 11 13 9 9 10 7
4 4 3 3 4 4 3 2 3 3 3 4 4 4 4 6 9 11 10 4 3 3 3 3 3 5 4 4 3 3 3 4 4 5 5 5 5 5 6 5 5 7 7
4 4 4 4 4 2 2 2 2 2 3 4 4 5 4 5 7 8 11 8 5 2 3 3 3 5 5 5 4 5 6 6 4 4 4 4 5 5 5 6 7 6 5
5 6 5 5 4 3 2 2 2 1 2 2 3 3 4 4 5 9 10 10 8 3 2 3 4 5 6 5 7 7 5 4 4 4 4 3 3 5 6 6 8 9 10
6 6 5 5 5 4 3 3 2 2 2 2 2 3 3 4 4 4 5 5 6 4 3 3 5 6 5 5 5 5 3 3 4 4 4 4 4 5 5 5 6 7 6
7 6 5 5 5 4 4 4 4 4 5 4 3 2 2 3 4 8 5 4 3 2 2 2 2 2 3 3 3 3 3 3 4 3 4 5 5 5 5 4 4 4 4
7 7 5 5 4 4 4 4 7 8 8 10 9 6 5 7 8 8 8 6 5 2 2 1 1 2 2 2 2 3 3 3 3 4 4 4 5 5 4 3 3 4 5
9 8 5 5 5 5 4 4 4 4 7 9 10 10 9 7 7 6 6 5 3 2 1 0 0 0 1 1 1 2 2 2 2 3 4 4 5 4 4 4 4 5 5
9 10 8 6 6 5 5 5 5 4 4 4 5 9 10 9 7 6 4 2 1 1 1 1 1 1 1 1 1 1 2 2 3 3 4 4 4 4 4 4 4 5 5
9 7 7 6 6 6 5 5 5 5 5 4 3 4 6 7 6 5 2 2 2 2 2 2 2 2 2 2 2 2 3 3 3 3 3 4 4 4 4 4 4 6 4
8 13 10 6 6 6 5 5 5 6 5 5 5 5 3 3 3 3 3 3 3 3 3 3 3 3 3 3 3 3 3 3 3 3 3 4 4 4 5 5 5 5 3
7 8 12 8 7 7 7 7 7 6 6 6 7 6 9 6 6 6 5 5 5 5 4 4 4 3 3 3 3 4 4 4 4 4 4 4 4 4 4 4 5 4 4
6 6 6 8 8 8 8 7 7 7 8 8 6 5 11 6 6 6 6 6 6 6 5 5 4 4 4 5 5 5 5 5 5 5 4 4 4 4 4 4 4 4 4
6 6 6 7 7 9 9 7 7 8 8 8 7 6 6 7 7 7 7 7 6 6 5 5 5 5 4 4 5 5 6 6 6 7 6 6 5 5 5 5 6 5 5
8 7 7 7 7 7 8 8 8 9 9 8 8 7 7 8 8 9 8 7 7 6 6 6 7 8 9 7 5 5 5 5 6 6 9 7 7 6 5 5 6 6 5
10 8 7 7 7 7 8 9 9 9 9 9 9 8 8 8 8 8 8 7 8 8 9 9 7 8 11 11 9 7 9 11 9 7 6 6 7 8 7 6 5 5 5
12 11 9 7 6 7 7 8 9 9 9 9 9 9 9 9 9 9 8 8 8 8 9 9 10 12 12 11 12 13 14 14 13 12 7 6 7 7 7 6 7 6 6
Wind_Direction
324 328 336 337 340 345 349 345 342 341 345 347 344 342 342 342 339 337 323 326 304 266 236 216 210 198 195 191 185 186 187 182 188 169 164 162 166 170 165 163 163 166 171
310 324 331 334 341 347 346 342 343 343 343 343 343 345 345 343 341 342 336 332 323 308 277 229 213 199 193 192 190 190 189 186 178 171 167 167 168 170 160 159 159 159 152
305 326 333 336 339 338 336 338 344 345 344 347 348 348 343 339 336 337 337 337 330 319 300 261 233 194 187 192 184 183 182 182 174 162 163 155 142 150 149 149 148 139 146
286 321 328 327 326 324 329 337 342 343 346 346 344 341 339 335 336 340 343 344 343 339 325 294 217 191 187 185 183 185 176 171 170 166 160 153 144 147 152 152 146 134 135
249 293 308 316 325 331 337 340 340 344 346 342 346 346 344 341 345 349 345 352 352 354 355 356 345 205 198 193 187 181 172 171 170 172 165 156 154 159 161 151 144 132 117
230 265 296 319 331 335 335 337 341 342 342 347 350 348 349 348 348 1 3 355 356 2 0 357 357 18 131 155 174 181 178 176 176 173 169 169 163 155 146 149 145 143 138
231 264 288 309 321 325 331 338 338 336 339 343 344 348 345 340 353 6 10 9 8 7 4 3 18 33 37 60 74 105 152 164 173 171 170 170 164 162 155 156 152 138 126
235 265 276 291 307 318 330 331 327 325 333 333 337 342 344 347 359 5 10 12 12 9 5 13 28 23 35 73 78 75 81 91 136 154 164 163 156 153 153 143 134 114 101
240 255 261 265 290 310 319 318 318 322 328 329 329 344 347 343 354 4 13 0 11 8 3 13 18 22 46 93 105 100 86 71 81 109 123 134 140 144 141 135 138 137 129
238 242 249 249 264 283 297 305 311 314 315 325 336 345 346 340 349 3 12 5 5 360 359 8 14 22 39 82 115 122 117 103 104 104 108 122 131 143 147 150 150 147 137
231 235 244 246 252 262 288 303 315 324 334 341 340 336 342 345 346 359 8 8 355 352 353 353 356 18 44 75 102 115 132 127 117 118 117 122 125 130 131 126 135 146 142
216 229 243 248 253 252 269 298 321 336 339 341 340 336 336 338 345 353 4 10 4 353 344 338 347 21 51 73 88 103 110 109 108 111 113 119 126 126 120 111 101 86 82
212 229 239 247 247 244 245 271 297 319 325 324 332 329 326 332 339 355 1 3 2 360 338 349 16 42 55 63 77 91 92 94 104 108 107 98 97 110 112 105 94 90 83
217 230 232 237 247 243 235 228 232 252 270 293 308 313 317 323 333 343 343 345 351 360 2 20 44 59 60 63 63 63 66 80 97 102 101 93 93 104 112 115 117 113 101
222 230 230 229 236 241 237 226 221 223 208 215 232 240 274 305 303 323 331 329 330 326 358 28 32 40 49 51 57 58 64 74 82 86 96 101 102 103 102 102 113 108 112
222 229 226 224 228 230 240 260 237 230 236 231 223 216 235 251 283 312 330 339 346 2 61 58 50 54 63 69 81 73 67 82 90 99 100 105 110 112 108 98 95 111 122
219 224 218 216 219 221 221 230 259 262 243 243 239 234 234 252 275 300 321 338 359 59 86 92 95 88 74 84 95 94 90 96 104 111 113 115 115 113 112 112 111 110 115
222 225 217 214 213 214 216 218 220 232 258 267 250 239 237 241 254 276 296 337 11 49 135 194 211 213 195 168 145 126 122 118 113 117 119 121 124 122 121 125 127 129 130
222 223 218 213 209 211 211 212 215 220 228 241 257 262 239 231 238 251 236 195 212 221 211 211 212 209 206 194 179 160 150 147 143 137 137 139 138 129 130 133 132 135 128
235 231 215 208 207 208 207 209 215 219 224 228 235 235 204 181 209 224 212 207 210 218 216 213 212 209 203 196 182 168 159 157 155 150 151 153 151 146 148 151 153 153 153
248 243 228 214 209 210 209 212 214 214 219 226 234 223 190 195 213 214 211 211 212 214 212 210 208 204 199 191 184 179 176 174 172 168 164 162 159 157 159 159 163 160 149
264 250 232 223 218 214 212 212 209 212 218 225 235 230 208 203 213 214 215 217 215 212 205 199 204 204 197 192 188 184 183 183 181 176 172 169 167 164 158 160 162 162 162
286 266 250 240 229 223 218 214 212 215 219 222 223 217 202 209 217 218 219 218 211 208 203 199 203 207 204 200 194 189 190 194 189 179 175 174 172 172 167 170 170 166 178
308 286 267 254 241 232 225 221 218 217 218 220 220 217 213 212 215 219 219 214 208 206 201 200 204 207 203 199 198 198 200 194 182 182 179 177 178 176 174 175 178 182 183
330 313 293 274 257 245 239 233 225 221 220 219 219 218 215 213 215 217 216 210 206 207 206 202 204 208 207 203 198 199 201 196 189 180 177 178 180 180 178 179 178 179 181
344 336 321 305 286 268 254 246 238 230 225 223 219 216 214 212 214 215 211 206 207 209 208 206 207 205 204 205 206 204 202 200 197 189 177 178 182 185 182 185 186 184 184